Regional Weather Roundup
Issued by NWS

Home | Current Version | Previous Version | Graphics & Text | Print | Product List | Glossary On
Versions: 1 2 3 4 5 6 7 8 9 10 11 12 13 14 15 16 17 18 19 20 21 22 23 24 25 26 27 28 29 30 31 32 33 34 35 36 37 38 39 40 41 42 43 44 45 46 47 48 49 50
000
ASUS43 KBIS 010910
RWRND

NORTH DAKOTA REGIONAL WEATHER ROUNDUP
NATIONAL WEATHER SERVICE BISMARCK ND
400 AM CDT TUE SEP 01 2015

NOTE: "FAIR" INDICATES FEW OR NO CLOUDS BELOW 12,000 FEET WITH NO
SIGNIFICANT WEATHER AND/OR OBSTRUCTIONS TO VISIBILITY.


NDZ001>003-009>011-017-011000-
NORTHWEST NORTH DAKOTA

CITY           SKY/WX    TMP DP  RH WIND       PRES   REMARKS
WILLISTON      CLEAR     49  44  83 SW5       29.84S
MINOT          CLEAR     60  48  64 SW10      29.83F
$$

NDZ018>021-031>035-040>046-011000-
SOUTHWEST NORTH DAKOTA

CITY           SKY/WX    TMP DP  RH WIND       PRES   REMARKS
BISMARCK       CLEAR     55  51  86 NE7       29.88S
DICKINSON      CLEAR     54  47  77 S9        29.86S
GARRISON         N/A     53  46  77 CALM      29.85F
HETTINGER ARPT PTCLDY    58  50  75 CALM      29.90F
$$

NDZ004>008-012>016-024-026-027-054-011000-
NORTHEAST NORTH DAKOTA

CITY           SKY/WX    TMP DP  RH WIND       PRES   REMARKS
GRAND FORKS    PTCLDY    54  51  90 S3        29.85S
GRND FRKS AFB  PTCLDY    53  49  88 SW3       29.85F
DEVILS LAKE    CLEAR     55  45  67 SE3       29.85S
$$

NDZ022-023-025-028>030-036>039-047>053-011000-
SOUTHEAST NORTH DAKOTA

CITY           SKY/WX    TMP DP  RH WIND       PRES   REMARKS
FARGO          PTCLDY    58  55  90 S5        29.87S
JAMESTOWN      MOCLDY    56  53  90 S5        29.89R
$$



USA.gov is the U.S. government's official web portal to all federal, state and local government web resources and services.